User: anonymous   Login
Location: Huntington Beach
(33.6600°N, 117.9980°W)
Time: 23:12:55
(UTC-07:00)
Language:

SL-16 R/B - Orbit

View from above orbital plane
View from above orbital plane
View from above satellite
View from above satellite

Ground track
Ground track

The orbit data is extracted from the following two-line orbital elements,

1 28353U 04021B   14303.16701322  .00000244  00000-0  15324-3 0  8729
2 28353 071.0016 293.7524 0006396 237.3822 194.4304 14.14098707536304
Epoch (UTC): 30 October 2014 04:00:29
Eccentricity: 0.0006396
inclination: 71.0016°
perigee height: 841 km
apogee height: 850 km
right ascension of ascending node: 293.7524°
argument of perigee: 237.3822°
revolutions per day: 14.14098707
mean anomaly at epoch: 194.4304°
orbit number at epoch: 53630

The dashed part of the orbit path shows where the satellite is in the earth's shadow,  

DLR